This is the latest recevied weather packets stored in our database for station/object W0VI. If no packets are shown the sender has not sent any weather packets the latest 1 day(s).
| Time | Temp. | Humidity | Pressure | Rain* | Wind** | Luminosity | Snow |
|---|---|---|---|---|---|---|---|
| 1836274713 | 18.33° C | 99% | 1015.4 hPa | 0 mm | 0 m/s | 0 W/m² | - |
| 1836274566 | 17.78° C | 99% | 1015.4 hPa | 0 mm | 0 m/s | 0 W/m² | - |
| 1836274412 | 18.33° C | 99% | 1015.3 hPa | 0 mm | 0 m/s | 0 W/m² | - |
| 1836274265 | 18.33° C | 99% | 1015.4 hPa | 0 mm | 0 m/s | 0 W/m² | - |
| 1836274110 | 18.33° C | 99% | 1015 hPa | 0 mm | 0 m/s | 0 W/m² | - |
| 1778048609 | 1.67° C | 65% | 1014.4 hPa | 0 mm | 0.45 m/s, 322° | 0 W/m² | - |
| 1778048305 | 1.67° C | 64% | 1014.5 hPa | 0 mm | 0 m/s | 0 W/m² | - |
| 1778048002 | 1.67° C | 64% | 1014.5 hPa | 0 mm | 0.89 m/s, 297° | 0 W/m² | - |
| 1778047700 | 1.67° C | 63% | 1014.6 hPa | 0 mm | 0.45 m/s, 302° | 0 W/m² | - |
| 1778047398 | 1.67° C | 64% | 1014.8 hPa | 0 mm | 0.89 m/s, 308° | 0 W/m² | - |
| 1778047094 | 1.67° C | 63% | 1014.6 hPa | 0 mm | 0 m/s | 0 W/m² | - |
| 1778046792 | 2.22° C | 62% | 1014.6 hPa | 0 mm | 0.45 m/s, 314° | 0 W/m² | - |
| 1778046488 | 2.22° C | 61% | 1014.4 hPa | 0 mm | 0.45 m/s, 311° | 0 W/m² | - |
| 1778046185 | 2.22° C | 61% | 1014.4 hPa | 0 mm | 0 m/s | 0 W/m² | - |
| 1778045881 | 2.22° C | 60% | 1014.5 hPa | 0 mm | 0.89 m/s, 326° | 0 W/m² | - |
| 1778045581 | 2.78° C | 61% | 1014.4 hPa | 0 mm | 0.89 m/s, 354° | 0 W/m² | - |
| 1778045278 | 2.78° C | 60% | 1014.5 hPa | 0 mm | 0.45 m/s, 327° | 0 W/m² | - |
| 1778044977 | 2.78° C | 60% | 1014.2 hPa | 0 mm | 0.89 m/s, 301° | 0 W/m² | - |
| 1778044673 | 2.78° C | 60% | 1014 hPa | 0 mm | 0.45 m/s, 355° | 0 W/m² | - |
| 1778044369 | 2.78° C | 60% | 1014 hPa | 0 mm | 0.45 m/s, 322° | 0 W/m² | - |
| 1778044068 | 2.78° C | 60% | 1013.9 hPa | 0 mm | 0 m/s | 0 W/m² | - |
| 1778043765 | 2.78° C | 59% | 1014.1 hPa | 0 mm | 0.45 m/s, 335° | 0 W/m² | - |
| 1778043461 | 2.78° C | 59% | 1013.8 hPa | 0 mm | 0 m/s | 0 W/m² | - |
| 1778043158 | 3.33° C | 58% | 1013.9 hPa | 0 mm | 0.89 m/s, 2° | 0 W/m² | - |
| 1778042855 | 3.33° C | 58% | 1013.9 hPa | 0 mm | 0.45 m/s, 338° | 0 W/m² | - |
* Rain latest hour (hover to see other rain measurements)
** Current wind speed in m/s (hover to see current wind gust speed)